[[{"header":{"parameterUnit":"m.s-1","parameterCategory":2,"la1":30.2991,"la2":30.254,"lo1":-89.0895,"lo2":-89.0444,"dy":0.0017,"dx":0.0017,"nx":28,"ny":28,"refTime":"2024-05-31T21:00:00:Z","depth":"0","parameterNumber":2,"parameterNumberName":"U-component_of_CURRENTS"},"data":[0,0,0,0,0,0,0,0,0,0,0,0,0,0,0,0,0,0,0,0,0,0,0,0,0,0,0,0,0,0,0,0,0,0,0,0,0,0,0,0,0,0,0,0,0,0,0,0,0,0,0,0,0,0,0,0,0,0,0.2505,0.2506,0,0.2619,0.262,0.2621,0.2628,0.2627,0.2626,0.2625,0.2586,0.2586,0.2586,0,0,0,0,0,0,0,0,0,0,0,0,0,0.241,0.241,0.2505,0.2506,0.2508,0.2618,0.262,0.2621,0.2628,0.2627,0.2626,0.2625,0.2586,0.2586,0.2586,0,0,0,0,0,0,0,0,0,0,0,0,0,0.2477,0.2411,0.2504,0.2527,0.253,0.2618,0.262,0.2621,0.2629,0.2627,0.2625,0.2624,0.2586,0.2586,0.2586,0.2616,0,0,0.2585,0.2585,0,0,0,0,0,0,0,0,0.2473,0.248,0.2522,0.2525,0.2529,0.261,0.2572,0.2613,0.2629,0.2588,0.2625,0.2623,0.2582,0.2583,0.2606,0.2614,0.2612,0.2585,0.2585,0.2585,0.2585,0,0,0,0,0,0,0,0.2468,0.2476,0.2547,0.2524,0.2529,0.2571,0.2578,0.2581,0.2588,0.2592,0.2593,0.2611,0.2583,0.2606,0.2604,0.2612,0.2585,0.2585,0.2585,0.2585,0.2633,0.2634,0,0,0,0,0,0,0.2455,0.2471,0.2543,0.2551,0.25,0.2574,0.2581,0.2583,0.2591,0.2593,0.2612,0.2611,0.2607,0.2605,0.2603,0.2625,0.2585,0.2585,0.2585,0.2631,0.2633,0.2634,0,0,0,0,0,0,0.2453,0.246,0.2539,0.2517,0.253,0.2577,0.258,0.2587,0.2615,0.2609,0.2606,0.2633,0.2606,0.2603,0.2619,0.2623,0.2585,0.2585,0.263,0.2632,0.2634,0.2678,0,0,0,0,0,0,0.2449,0.2458,0.2457,0.2515,0.2531,0.2598,0.2582,0.259,0.2629,0.2628,0.2626,0.2621,0.2604,0.2619,0.2619,0.2623,0.2585,0.2628,0.2631,0.2633,0.2674,0.2681,0.2686,0,0,0,0,0,0.2445,0.2453,0.2456,0.2465,0.2526,0.26,0.2612,0.2639,0.2631,0.2655,0.2654,0.2621,0.2634,0.2621,0.262,0.2624,0.2627,0.263,0.2633,0.2672,0.268,0.2686,0,0,0,0,0,0,0.2421,0.2456,0.2461,0.248,0.2538,0.2602,0.2632,0.2649,0.2673,0.2666,0.2647,0.2644,0.2661,0.2644,0.2631,0.2647,0.2622,0.2625,0.2652,0.2659,0.2665,0.269,0.2585,0,0,0,0,0,0.2413,0.242,0.2477,0.2497,0.2527,0.2581,0.2614,0.2637,0.2669,0.2679,0.2678,0.2672,0.2676,0.2668,0.2674,0.2685,0.2695,0.2686,0.2691,0.2696,0.2718,0.2757,0.2769,0.2644,0.2644,0.2644,0,0,0.2412,0.2433,0.2438,0.2492,0.2538,0.2589,0.2597,0.2657,0.2686,0.2668,0.2699,0.2701,0.2688,0.2704,0.2707,0.2685,0.2734,0.27,0.2704,0.2724,0.2762,0.2774,0.2785,0.2646,0.2646,0.2645,0,0,0.2424,0.2435,0.245,0.2496,0.2565,0.2604,0.2623,0.2692,0.2708,0.2748,0.2739,0.2755,0.2755,0.2756,0.275,0.2796,0.2774,0.2783,0.282,0.2857,0.2868,0.2878,0.289,0.2901,0.2773,0.2773,0.2773,0,0.242,0.2437,0.2474,0.2513,0.2549,0.261,0.2652,0.2692,0.2753,0.277,0.2757,0.2796,0.2782,0.2805,0.282,0.2808,0.2822,0.2789,0.2866,0.2875,0.2884,0.2895,0.2906,0.2775,0.2775,0.2775,0.2775,0,0.2448,0.2466,0.2491,0.2541,0.2595,0.2643,0.2707,0.2751,0.2773,0.2808,0.2849,0.2854,0.2871,0.2866,0.2855,0.2907,0.2893,0.2877,0.2846,0.29,0.2907,0.2918,0.2779,0.2778,0.2777,0.2777,0,0,0.2412,0.2487,0.249,0.2515,0.2605,0.2652,0.2714,0.2785,0.282,0.2868,0.2906,0.2931,0.2946,0.2944,0.2935,0.2967,0.3033,0.2953,0.2954,0.2965,0.3107,0.298,0.2978,0.3033,0.3035,0.3037,0.3081,0,0.2415,0.2462,0.2508,0.2567,0.2604,0.2677,0.2727,0.28,0.2852,0.2906,0.2935,0.2969,0.2968,0.2973,0.3014,0.3031,0.3067,0.3022,0.3056,0.3057,0.2937,0.2989,0.2812,0.2827,0.3091,0.3093,0.3094,0,0.2415,0.2444,0.2488,0.2563,0.2588,0.2633,0.2724,0.2783,0.2881,0.2921,0.2984,0.301,0.307,0.3055,0.3135,0.3108,0.3125,0.3137,0.3139,0.3017,0.295,0.282,0.2836,0.2784,0.311,0.3109,0.3108,0,0.2356,0.2427,0.2449,0.2477,0.2579,0.261,0.2671,0.2779,0.2827,0.2937,0.2975,0.3058,0.3082,0.3144,0.3174,0.3164,0.3254,0.3229,0.3135,0.3125,0.2981,0.2953,0.295,0.3305,0.3305,0.3304,0.3304,0,0.2329,0.2351,0.2417,0.2432,0.2473,0.2564,0.2624,0.2708,0.2808,0.2867,0.2972,0.3016,0.3111,0.3164,0.32,0.3193,0.3273,0.3161,0.3138,0.2987,0.296,0.2912,0.2888,0.3306,0.3306,0.3305,0.3305,0,0.2279,0.2313,0.235,0.2426,0.2447,0.2483,0.2589,0.2637,0.2744,0.2823,0.2856,0.2989,0.3055,0.3128,0.3213,0.319,0.3103,0.3196,0.2998,0.295,0.2768,0.2752,0.2588,0.2516,0.3088,0.3086,0.3083,0,0.2268,0.2274,0.233,0.2347,0.2381,0.2438,0.248,0.2594,0.2648,0.2795,0.282,0.2915,0.2951,0.3022,0.3019,0.3039,0.2999,0.2883,0.2826,0.2746,0.2714,0.2597,0.2543,0.2655,0.265,0.2645,0.2641,0,0.2251,0.226,0.2284,0.2304,0.2334,0.2378,0.2441,0.2466,0.2597,0.2648,0.2723,0.2757,0.2808,0.274,0.2756,0.2755,0.2694,0.2783,0.2767,0.2431,0.2239,0.2161,0.2636,0.26,0.2604,0.2607,0.261,0.2611,0.2238,0.2241,0.2253,0.227,0.2292,0.2308,0.2303,0.236,0.2399,0.2435,0.2556,0.2531,0.2524,0.2502,0.2487,0.2351,0.2385,0.2276,0.2283,0.2189,0.2049,0.2415,0.2304,0.2306,0.2308,0.231,0.2311,0,0.2208,0.221,0.2226,0.2221,0.22,0.2238,0.2263,0.2225,0.2202,0.2242,0.2258,0.2206,0.2113,0.2109,0.2001,0.1892,0.1805,0.1851,0.1691,0.1683,0.2073,0.1986,0.1718,0.1718,0.1718,0.1718,0.1718,0.1718,0.2195,0.2178,0.2174,0.2117,0.2109,0.2036,0.2021,0.1971,0.1958,0.1871,0.1806,0.1815,0.1838,0.1759,0.1631,0.1595,0.1493,0.1333,0.1421,0.1751,0.1793,0.1833,0.1749,0.1435,0.1435,0.0919,0.0916,0.0913]},{"header":{"parameterUnit":"m.s-1","parameterCategory":2,"la1":30.2991,"la2":30.254,"lo1":-89.0895,"lo2":-89.0444,"dy":0.0017,"dx":0.0017,"nx":28,"ny":28,"refTime":"2024-05-31T21:00:00:Z","depth":"0","parameterNumber":3,"parameterNumberName":"V-component_of_CURRENTS"},"data":[0,0,0,0,0,0,0,0,0,0,0,0,0,0,0,0,0,0,0,0,0,0,0,0,0,0,0,0,0,0,0,0,0,0,0,0,0,0,0,0,0,0,0,0,0,0,0,0,0,0,0,0,0,0,0,0,0,0,0.0105,0.0105,0,0.0087,0.0087,0.0086,0.0073,0.0073,0.0073,0.0073,-0.0032,-0.0035,-0.0038,0,0,0,0,0,0,0,0,0,0,0,0,0,0.0092,0.0093,0.0105,0.0105,0.0105,0.0087,0.0087,0.0086,0.0073,0.0073,0.0073,0.0073,-0.0031,-0.0035,-0.0038,0,0,0,0,0,0,0,0,0,0,0,0,0,0.0088,0.0093,0.0105,0.0097,0.0096,0.0087,0.0087,0.0086,0.0073,0.0073,0.0073,0.0073,-0.003,-0.0034,-0.0038,-0.0064,0,0,-0.0051,-0.0053,0,0,0,0,0,0,0,0,0.0088,0.0088,0.0099,0.0098,0.0097,0.0083,0.0044,0.0032,0.0073,0.0081,0.0073,0.0073,-0.0001,-0.0007,-0.0011,-0.0069,-0.0073,-0.0052,-0.0054,-0.0056,-0.0057,0,0,0,0,0,0,0,0.0088,0.0088,0.0097,0.0098,0.0097,0.0082,0.0082,0.0041,0.0038,0.008,0.0079,0.0079,-0.0002,-0.0007,-0.0014,-0.0075,-0.0051,-0.0055,-0.0058,-0.0059,-0.017,-0.0171,0,0,0,0,0,0,0.0095,0.0089,0.0098,0.0097,0.0093,0.0082,0.0082,0.0087,0.004,0.0034,0.0079,0.0079,0.0,-0.0009,-0.0018,-0.004,-0.0056,-0.006,-0.0062,-0.017,-0.0171,-0.0171,0,0,0,0,0,0,0.0095,0.0096,0.0098,0.0093,0.0092,0.0083,0.0088,0.0086,0.0084,0.0041,0.0033,0.008,-0.0,-0.0012,-0.0057,-0.0045,-0.0062,-0.0065,-0.017,-0.017,-0.0171,-0.0092,0,0,0,0,0,0,0.0094,0.0096,0.0099,0.0094,0.0093,0.01,0.0089,0.0086,0.0084,0.0084,0.0038,0.0028,-0.0001,-0.005,-0.0061,-0.0051,-0.0069,-0.0169,-0.017,-0.0171,-0.0094,-0.0089,-0.0086,0,0,0,0,0,0.0094,0.01,0.0099,0.01,0.0098,0.0101,0.0099,0.0091,0.0085,0.0088,0.0049,0.003,-0.0063,-0.0054,-0.0066,-0.0057,-0.0169,-0.017,-0.0171,-0.0095,-0.009,-0.0086,0,0,0,0,0,0,0.0104,0.0099,0.0098,0.0105,0.0106,0.0099,0.0101,0.0094,0.0068,0.0065,0.002,0.0007,-0.0026,-0.006,-0.005,-0.0094,-0.0117,-0.0121,-0.0056,-0.0052,-0.0048,0.0003,-0.0072,0,0,0,0,0,0.0106,0.0105,0.0105,0.0112,0.0115,0.0108,0.0107,0.0105,0.0085,0.0075,0.0043,0.0,-0.004,-0.006,-0.01,-0.0127,-0.0125,-0.0131,-0.0127,-0.0123,-0.0092,-0.009,-0.0081,-0.0174,-0.0174,-0.0174,0,0,0.0112,0.011,0.011,0.0113,0.0114,0.0128,0.0108,0.0115,0.0123,0.0064,0.0057,0.001,-0.0047,-0.0073,-0.0091,-0.0099,-0.0097,-0.0124,-0.012,-0.0091,-0.009,-0.008,-0.0072,-0.0175,-0.0175,-0.0175,0,0,0.0129,0.0124,0.0133,0.0138,0.0143,0.0142,0.0146,0.0143,0.0138,0.0122,0.0079,0.0046,-0.0014,-0.0042,-0.0068,-0.007,-0.0079,-0.0093,-0.0025,-0.0024,-0.0015,-0.0007,0.0013,0.0022,-0.0086,-0.0086,-0.0086,0,0.0141,0.0153,0.0137,0.0154,0.0166,0.0152,0.0178,0.017,0.0151,0.0156,0.0129,0.0068,0.0009,-0.0007,-0.0013,-0.0056,-0.005,-0.0034,-0.0014,-0.0007,0.0,0.0019,0.0028,-0.0082,-0.0083,-0.0083,-0.0084,0,0.0168,0.0182,0.0191,0.0208,0.0215,0.0235,0.0231,0.0235,0.0225,0.0222,0.0208,0.014,0.0116,0.0078,0.0029,0.0043,0.0034,-0.0009,-0.0014,0.0015,0.0032,0.004,-0.0077,-0.0078,-0.008,-0.0081,0,0,0.0203,0.0208,0.0216,0.024,0.0249,0.0267,0.028,0.03,0.0333,0.0301,0.0342,0.0255,0.0241,0.0211,0.015,0.0141,0.0174,0.0094,0.0092,0.0139,0.0202,0.0176,0.0182,0.0138,0.014,0.0141,0.0198,0,0.024,0.0275,0.0269,0.0321,0.0348,0.0346,0.0368,0.0381,0.0385,0.0418,0.0369,0.0373,0.0285,0.0283,0.0261,0.0195,0.0199,0.0165,0.0147,0.0148,0.014,0.0191,0.0204,0.0254,0.0206,0.0207,0.0208,0,0.0279,0.0301,0.0345,0.0393,0.0408,0.0438,0.0494,0.0514,0.0542,0.0547,0.0554,0.0525,0.051,0.043,0.0378,0.0363,0.0301,0.0249,0.0249,0.021,0.0137,0.0213,0.0271,0.0218,0.0221,0.022,0.0219,0,0.0318,0.0364,0.0401,0.0416,0.0459,0.0492,0.0525,0.056,0.0603,0.0648,0.0697,0.0666,0.0676,0.0597,0.0478,0.044,0.0431,0.0359,0.0288,0.0285,0.0288,0.0283,0.0317,0.0345,0.0345,0.0344,0.0344,0,0.0363,0.0401,0.0428,0.0455,0.0532,0.0548,0.0638,0.0663,0.0729,0.0813,0.0779,0.0844,0.072,0.0689,0.0559,0.0465,0.0496,0.0334,0.0306,0.0312,0.0309,0.0253,0.0208,0.0347,0.0346,0.0346,0.0345,0,0.0395,0.0405,0.0462,0.0519,0.0548,0.0607,0.0712,0.0783,0.0835,0.0951,0.0978,0.0998,0.0958,0.0825,0.071,0.0586,0.0444,0.0431,0.0457,0.043,0.0296,0.0254,0.0272,0.022,0.0382,0.0382,0.0382,0,0.0413,0.0439,0.0508,0.0553,0.0585,0.0677,0.075,0.0825,0.0911,0.105,0.1119,0.1132,0.115,0.0986,0.0763,0.0573,0.0467,0.0463,0.0376,0.0327,0.026,0.0231,0.0182,0.0416,0.0416,0.0417,0.0417,0,0.0453,0.0467,0.051,0.0599,0.0681,0.0782,0.0897,0.0982,0.1095,0.1206,0.1343,0.1376,0.1234,0.1064,0.0799,0.0647,0.043,0.0458,0.0406,0.0305,0.0282,0.0204,0.0349,0.0418,0.0418,0.0417,0.0417,0.0417,0.0485,0.0516,0.0566,0.0656,0.075,0.0879,0.0977,0.1109,0.1266,0.1434,0.1478,0.1535,0.1317,0.0957,0.0765,0.0451,0.0424,0.035,0.0312,0.0296,0.0222,0.0378,0.04,0.04,0.04,0.04,0.04,0,0.0528,0.0556,0.0628,0.0738,0.0844,0.0893,0.1069,0.1175,0.1362,0.1498,0.161,0.1538,0.1274,0.0968,0.0568,0.0364,0.0259,0.0253,0.0227,0.0184,0.0337,0.0313,0.0319,0.0319,0.0319,0.0319,0.0319,0.0319,0.055,0.0606,0.0636,0.0796,0.0884,0.1038,0.114,0.1294,0.1408,0.1564,0.1601,0.162,0.1454,0.0836,0.0422,0.0295,0.0146,0.0116,0.0032,0.0147,0.0153,0.0159,0.0128,0.0095,0.0095,-0.0101,-0.0102,-0.0104]}],[{"header":{"parameterUnit":"m.s-1","parameterCategory":2,"la1":30.2991,"la2":30.254,"lo1":-89.0895,"lo2":-89.0444,"dy":0.0017,"dx":0.0017,"nx":28,"ny":28,"refTime":"2024-05-31T21:00:00:Z","depth":"2","parameterNumber":2,"parameterNumberName":"U-component_of_CURRENTS"},"data":[0,0,0,0,0,0,0,0,0,0,0,0,0,0,0,0,0,0,0,0,0,0,0,0,0,0,0,0,0,0,0,0,0,0,0,0,0,0,0,0,0,0,0,0,0,0,0,0,0,0,0,0,0,0,0,0,0,0,0.2106,0.2106,0,0.2104,0.2104,0.2104,0.2077,0.2076,0.2075,0.2075,0.2197,0.2201,0.2205,0,0,0,0,0,0,0,0,0,0,0,0,0,0.2141,0.214,0.2106,0.2106,0.2106,0.2104,0.2104,0.2104,0.2077,0.2076,0.2075,0.2074,0.2196,0.22,0.2205,0,0,0,0,0,0,0,0,0,0,0,0,0,0.2131,0.214,0.2106,0.2093,0.2091,0.2104,0.2104,0.2104,0.2077,0.2076,0.2075,0.2074,0.2194,0.22,0.2206,0.2261,0,0,0.2223,0.2226,0,0,0,0,0,0,0,0,0.2131,0.2129,0.2095,0.2094,0.2092,0.209,0.2161,0.2163,0.2077,0.2082,0.2075,0.2073,0.2174,0.2181,0.2181,0.2267,0.2272,0.2224,0.2228,0.223,0.2232,0,0,0,0,0,0,0,0.2132,0.213,0.2105,0.2095,0.2093,0.2105,0.2102,0.2161,0.2135,0.2081,0.208,0.208,0.2174,0.2175,0.2184,0.2274,0.2224,0.2229,0.2233,0.2235,0.2463,0.2466,0,0,0,0,0,0,0.2131,0.213,0.2105,0.2105,0.211,0.2105,0.2102,0.2091,0.2132,0.2136,0.2081,0.2079,0.2166,0.2177,0.2188,0.233,0.223,0.2235,0.2239,0.2461,0.2464,0.2467,0,0,0,0,0,0,0.2132,0.2128,0.2105,0.2118,0.2116,0.2105,0.2094,0.2092,0.214,0.213,0.2137,0.2137,0.2165,0.218,0.2244,0.2332,0.2238,0.2243,0.2458,0.2462,0.2465,0.2569,0,0,0,0,0,0,0.2132,0.2128,0.2141,0.2118,0.2115,0.2117,0.2095,0.2092,0.2139,0.2138,0.2181,0.2187,0.2166,0.2235,0.225,0.2339,0.2248,0.2455,0.246,0.2464,0.2562,0.2575,0.2587,0,0,0,0,0,0.2134,0.2147,0.2141,0.2139,0.2125,0.2118,0.2119,0.2108,0.2144,0.2154,0.218,0.2188,0.2277,0.2242,0.2258,0.2351,0.2452,0.2458,0.2464,0.2556,0.2573,0.2587,0,0,0,0,0,0,0.2151,0.2145,0.2138,0.2143,0.2135,0.2114,0.2132,0.2154,0.2187,0.22,0.2216,0.2223,0.2331,0.2319,0.2279,0.2428,0.2372,0.2381,0.2437,0.2452,0.2465,0.245,0.2253,0,0,0,0,0,0.2166,0.2184,0.2162,0.2169,0.2171,0.2175,0.2187,0.2179,0.2196,0.2211,0.2246,0.2291,0.2364,0.2385,0.2434,0.2506,0.2482,0.2577,0.259,0.26,0.2599,0.2624,0.2638,0.2486,0.2486,0.2486,0,0,0.2171,0.2174,0.2182,0.2178,0.2175,0.2188,0.2179,0.2198,0.2235,0.2226,0.2308,0.236,0.2401,0.2477,0.2523,0.2475,0.2633,0.2608,0.2617,0.2609,0.2632,0.2646,0.2659,0.249,0.2489,0.2489,0,0,0.2193,0.2198,0.222,0.2223,0.2229,0.2227,0.2254,0.2264,0.2293,0.2364,0.2391,0.2471,0.2563,0.2587,0.2623,0.2738,0.2722,0.2783,0.2814,0.2839,0.2851,0.2862,0.2848,0.2856,0.276,0.2761,0.2761,0,0.2216,0.2215,0.2224,0.2243,0.2247,0.2262,0.2276,0.2318,0.2354,0.2399,0.24,0.2578,0.2614,0.2728,0.2754,0.2773,0.2763,0.2754,0.2854,0.2864,0.2873,0.2856,0.2864,0.2766,0.2766,0.2765,0.2764,0,0.2239,0.2247,0.2261,0.2291,0.2303,0.2312,0.2346,0.24,0.2463,0.2506,0.2649,0.2688,0.2775,0.2829,0.2829,0.2937,0.2904,0.2891,0.2811,0.2894,0.2871,0.2878,0.2774,0.2772,0.2771,0.2769,0,0,0.2257,0.2278,0.2279,0.2296,0.2321,0.2336,0.2411,0.2474,0.2559,0.2635,0.2735,0.2872,0.2906,0.2946,0.2978,0.2996,0.3058,0.2966,0.2965,0.2943,0.309,0.2948,0.294,0.3063,0.3065,0.3067,0.3047,0,0.2269,0.2294,0.2306,0.2345,0.2353,0.2393,0.2479,0.2553,0.2619,0.2722,0.2814,0.2926,0.295,0.2999,0.3037,0.3063,0.308,0.3062,0.302,0.3018,0.2874,0.2945,0.2717,0.267,0.3053,0.3054,0.3054,0,0.2268,0.2287,0.2303,0.2375,0.2392,0.2437,0.2543,0.2618,0.2757,0.2821,0.2921,0.2984,0.3072,0.3062,0.3135,0.3123,0.312,0.3121,0.3119,0.295,0.2887,0.2651,0.2666,0.3064,0.3063,0.3062,0.3062,0,0.2236,0.2285,0.2298,0.2312,0.2404,0.2454,0.2525,0.265,0.2718,0.2858,0.2907,0.3037,0.3087,0.3124,0.3137,0.3139,0.3177,0.3169,0.3038,0.3027,0.2803,0.2767,0.3212,0.3212,0.3212,0.3212,0.3212,0,0.2212,0.2243,0.2295,0.2303,0.2382,0.2455,0.255,0.2651,0.2766,0.2846,0.2951,0.3002,0.3106,0.3135,0.3145,0.3099,0.3181,0.305,0.302,0.2831,0.28,0.3116,0.3105,0.3211,0.3211,0.3211,0.3211,0,0.2174,0.2198,0.2243,0.233,0.2352,0.2422,0.2526,0.2606,0.2725,0.2804,0.2843,0.2975,0.3014,0.3072,0.3117,0.308,0.3061,0.3024,0.2775,0.2715,0.289,0.2886,0.2872,0.2867,0.2863,0.2859,0.2856,0,0.2173,0.2168,0.2229,0.2253,0.2291,0.2375,0.2434,0.2566,0.2618,0.2768,0.2797,0.2874,0.2884,0.2888,0.2863,0.2828,0.295,0.2585,0.255,0.2888,0.2861,0.2862,0.2863,0.2297,0.229,0.2284,0.2279,0,0.217,0.2181,0.2204,0.2218,0.2266,0.2315,0.2391,0.2403,0.2558,0.2596,0.264,0.2647,0.2674,0.2532,0.2505,0.2465,0.2571,0.2457,0.2889,0.2412,0.2342,0.2317,0.2337,0.2226,0.2231,0.2235,0.2238,0.224,0.219,0.2198,0.2192,0.2212,0.2247,0.225,0.2228,0.2282,0.2303,0.2316,0.2406,0.233,0.2342,0.2161,0.2078,0.2038,0.223,0.2132,0.2153,0.2179,0.2109,0.2036,0.1847,0.185,0.1853,0.1855,0.1857,0,0.2193,0.2187,0.2191,0.2197,0.2155,0.22,0.2198,0.2131,0.207,0.2086,0.2056,0.1827,0.1696,0.1729,0.1576,0.155,0.1567,0.1485,0.1504,0.1557,0.1604,0.1508,0.1084,0.1082,0.108,0.1078,0,0,0.2216,0.2198,0.2173,0.2092,0.2069,0.2008,0.1959,0.1838,0.1797,0.166,0.1576,0.1621,0.1663,0.1356,0.1308,0.1175,0.1364,0.1119,0.174,0.1816,0.1861,0.1975,0.1885,0,0,0,0,0]},{"header":{"parameterUnit":"m.s-1","parameterCategory":2,"la1":30.2991,"la2":30.254,"lo1":-89.0895,"lo2":-89.0444,"dy":0.0017,"dx":0.0017,"nx":28,"ny":28,"refTime":"2024-05-31T21:00:00:Z","depth":"2","parameterNumber":3,"parameterNumberName":"V-component_of_CURRENTS"},"data":[0,0,0,0,0,0,0,0,0,0,0,0,0,0,0,0,0,0,0,0,0,0,0,0,0,0,0,0,0,0,0,0,0,0,0,0,0,0,0,0,0,0,0,0,0,0,0,0,0,0,0,0,0,0,0,0,0,0,-0.0059,-0.0059,0,-0.0065,-0.0065,-0.0065,-0.0068,-0.0069,-0.0069,-0.0069,-0.0147,-0.0149,-0.0151,0,0,0,0,0,0,0,0,0,0,0,0,0,-0.0048,-0.0048,-0.0059,-0.0059,-0.0059,-0.0065,-0.0065,-0.0065,-0.0068,-0.0069,-0.0069,-0.0069,-0.0146,-0.0148,-0.0151,0,0,0,0,0,0,0,0,0,0,0,0,0,-0.0051,-0.0048,-0.0059,-0.0063,-0.0064,-0.0065,-0.0065,-0.0065,-0.0068,-0.0069,-0.0069,-0.0069,-0.0145,-0.0148,-0.0151,-0.0163,0,0,-0.016,-0.0161,0,0,0,0,0,0,0,0,-0.0051,-0.0052,-0.0062,-0.0063,-0.0064,-0.0068,-0.0089,-0.0102,-0.0068,-0.0065,-0.0069,-0.0069,-0.0128,-0.0132,-0.0129,-0.0167,-0.017,-0.016,-0.0162,-0.0163,-0.0164,0,0,0,0,0,0,0,-0.0051,-0.0051,-0.0059,-0.0063,-0.0063,-0.0064,-0.0065,-0.0091,-0.0095,-0.0065,-0.0066,-0.0069,-0.0129,-0.0126,-0.0131,-0.0171,-0.016,-0.0162,-0.0164,-0.0165,-0.0237,-0.0237,0,0,0,0,0,0,-0.0054,-0.0051,-0.0059,-0.006,-0.006,-0.0064,-0.0065,-0.0065,-0.0093,-0.0097,-0.0069,-0.0069,-0.0121,-0.0128,-0.0134,-0.015,-0.0163,-0.0166,-0.0167,-0.0236,-0.0237,-0.0237,0,0,0,0,0,0,-0.0053,-0.0054,-0.0059,-0.0057,-0.0058,-0.0064,-0.0064,-0.0065,-0.0076,-0.0095,-0.0101,-0.0081,-0.0122,-0.013,-0.0152,-0.0154,-0.0167,-0.0169,-0.0236,-0.0237,-0.0237,-0.0183,0,0,0,0,0,0,-0.0053,-0.0054,-0.005,-0.0057,-0.0058,-0.0051,-0.0064,-0.0065,-0.0077,-0.0078,-0.0108,-0.0114,-0.0123,-0.0148,-0.0155,-0.0158,-0.0172,-0.0236,-0.0236,-0.0237,-0.0185,-0.0182,-0.0179,0,0,0,0,0,-0.0052,-0.0046,-0.0049,-0.005,-0.0054,-0.005,-0.005,-0.0055,-0.0078,-0.0069,-0.0092,-0.0114,-0.0156,-0.015,-0.0159,-0.0162,-0.0236,-0.0236,-0.0237,-0.0186,-0.0182,-0.0179,0,0,0,0,0,0,-0.0035,-0.0046,-0.005,-0.0046,-0.0045,-0.0052,-0.0048,-0.0064,-0.0076,-0.0085,-0.0113,-0.012,-0.0149,-0.0163,-0.0156,-0.0185,-0.0202,-0.0204,-0.016,-0.0157,-0.0154,-0.009,-0.0174,0,0,0,0,0,-0.0031,-0.0029,-0.0037,-0.0031,-0.0035,-0.0048,-0.005,-0.0055,-0.0069,-0.0075,-0.0097,-0.0125,-0.0155,-0.0161,-0.019,-0.0197,-0.0193,-0.0208,-0.0205,-0.0202,-0.0157,-0.0155,-0.0147,-0.0238,-0.0238,-0.0238,0,0,-0.0023,-0.0028,-0.0026,-0.0027,-0.0031,-0.0021,-0.0049,-0.0052,-0.0048,-0.0085,-0.0091,-0.0127,-0.0161,-0.017,-0.0183,-0.0179,-0.0181,-0.0202,-0.0199,-0.0155,-0.0155,-0.0145,-0.0137,-0.0239,-0.0238,-0.0238,0,0,-0.0002,-0.0012,-0.0002,0.0001,-0.0005,-0.0009,-0.0015,-0.0027,-0.0038,-0.005,-0.0083,-0.0099,-0.0147,-0.0146,-0.0161,-0.0159,-0.018,-0.0193,-0.0106,-0.0107,-0.0098,-0.009,-0.0095,-0.0088,-0.0173,-0.0173,-0.0173,0,0.0013,0.0023,0.0004,0.0017,0.0024,-0.0005,0.0012,-0.0001,-0.0017,-0.0018,-0.0048,-0.0079,-0.0125,-0.0107,-0.0107,-0.0149,-0.0153,-0.0117,-0.0099,-0.0091,-0.0084,-0.0091,-0.0084,-0.0171,-0.0171,-0.0171,-0.0171,0,0.0042,0.0053,0.0058,0.0068,0.0073,0.0083,0.0064,0.0063,0.0033,0.0025,0.002,-0.0012,-0.0007,-0.005,-0.008,-0.0051,-0.0074,-0.0111,-0.0099,-0.0071,-0.0081,-0.0075,-0.0167,-0.0168,-0.0169,-0.0169,0,0,0.0081,0.0079,0.0086,0.0103,0.0101,0.0114,0.0115,0.0123,0.0144,0.0117,0.0162,0.0102,0.0107,0.0094,0.0061,0.0062,0.0076,0.0011,0.0009,0.0024,0.0079,0.0039,0.0042,0.0041,0.0043,0.0045,0.0044,0,0.0118,0.0147,0.014,0.0184,0.0197,0.0186,0.0208,0.0209,0.0196,0.0232,0.0206,0.0224,0.0153,0.0175,0.0166,0.0097,0.01,0.0081,0.0037,0.0036,0.0012,0.0051,0.0061,0.0061,0.0051,0.0052,0.0052,0,0.0156,0.0172,0.021,0.025,0.0259,0.0291,0.0334,0.0354,0.0378,0.0375,0.0405,0.0383,0.0404,0.0334,0.0285,0.0275,0.0201,0.014,0.0137,0.0101,0.0011,0.0033,0.0073,0.0063,0.0062,0.0062,0.0061,0,0.0189,0.0228,0.0261,0.0273,0.031,0.0343,0.0379,0.0404,0.0439,0.0497,0.0542,0.0541,0.0575,0.049,0.0359,0.0329,0.0291,0.0226,0.0129,0.0123,0.013,0.0123,0.0209,0.0209,0.0209,0.0209,0.0209,0,0.0224,0.0263,0.0288,0.031,0.0386,0.0404,0.0495,0.0518,0.0591,0.067,0.065,0.0716,0.0616,0.057,0.0428,0.0309,0.0345,0.0177,0.0136,0.0143,0.0137,0.0139,0.0131,0.0209,0.0209,0.0209,0.0209,0,0.0253,0.0263,0.0318,0.0372,0.0397,0.0464,0.0568,0.0635,0.0699,0.0815,0.085,0.0862,0.0808,0.0675,0.0542,0.0414,0.0281,0.0224,0.0237,0.0199,0.0098,0.0092,0.014,0.0138,0.0138,0.0137,0.0136,0,0.0271,0.0292,0.0359,0.0403,0.0436,0.0533,0.0602,0.0682,0.076,0.0896,0.0961,0.0965,0.0948,0.0747,0.0542,0.0328,0.0283,0.0195,0.014,0.0143,0.0098,0.0094,0.009,0.0158,0.0158,0.0157,0.0157,0,0.0312,0.0331,0.037,0.0449,0.0528,0.0623,0.0733,0.08,0.0924,0.1011,0.111,0.111,0.0972,0.0771,0.0502,0.0348,0.0228,0.018,0.0208,0.0165,0.0158,0.0114,0.011,0.0154,0.0154,0.0155,0.0155,0.0155,0.0355,0.0389,0.0433,0.0517,0.0605,0.0711,0.0785,0.0901,0.1023,0.1146,0.1162,0.115,0.099,0.062,0.0412,0.0204,0.021,0.0107,0.0109,0.0112,0.0105,0.0096,0.0079,0.0079,0.0079,0.0079,0.0079,0,0.0392,0.0439,0.0502,0.0603,0.0678,0.0726,0.0871,0.0936,0.1069,0.1154,0.1206,0.0997,0.0801,0.0603,0.0304,0.0118,0.0106,0.0045,0.0076,0.008,0.0084,0.0076,0.0043,0.0042,0.0041,0.0041,0,0,0.0422,0.0475,0.0497,0.0635,0.0709,0.0834,0.0905,0.098,0.1059,0.1108,0.1095,0.1059,0.0845,0.0608,0.0384,0.022,0.0184,0.0175,0.0224,0.0293,0.0299,0.014,0.0136,0,0,0,0,0]}],[{"header":{"parameterUnit":"m.s-1","parameterCategory":2,"la1":30.2991,"la2":30.254,"lo1":-89.0895,"lo2":-89.0444,"dy":0.0017,"dx":0.0017,"nx":28,"ny":28,"refTime":"2024-05-31T21:00:00:Z","depth":"4","parameterNumber":2,"parameterNumberName":"U-component_of_CURRENTS"},"data":[0,0,0,0,0,0,0,0,0,0,0,0,0,0,0,0,0,0,0,0,0,0,0,0,0,0,0,0,0,0,0,0,0,0,0,0,0,0,0,0,0,0,0,0,0,0,0,0,0,0,0,0,0,0,0,0,0,0,0.1017,0.1017,0,0.0987,0.0987,0.0986,0.1012,0.1013,0.1014,0.1015,0.1032,0.1032,0.1032,0,0,0,0,0,0,0,0,0,0,0,0,0,0.108,0.1079,0.1017,0.1017,0.1016,0.0987,0.0987,0.0986,0.1012,0.1013,0.1014,0.1015,0.1033,0.1032,0.1032,0,0,0,0,0,0,0,0,0,0,0,0,0,0.1053,0.1079,0.1018,0.1025,0.1025,0.0987,0.0987,0.0986,0.1011,0.1013,0.1014,0.1016,0.1033,0.1032,0.1032,0.0999,0,0,0.103,0.1029,0,0,0,0,0,0,0,0,0.1054,0.1051,0.1024,0.1024,0.1024,0.1004,0.1015,0.0992,0.1011,0.1018,0.1015,0.1016,0.1025,0.1026,0.1018,0.1,0.1,0.103,0.1029,0.1029,0.1029,0,0,0,0,0,0,0,0.1056,0.1052,0.1007,0.1023,0.1024,0.1023,0.1021,0.1011,0.1016,0.1017,0.1019,0.1013,0.1026,0.1018,0.1018,0.1001,0.103,0.1029,0.1029,0.1028,0.1058,0.1059,0,0,0,0,0,0,0.1057,0.1054,0.1007,0.1006,0.1042,0.1021,0.1019,0.101,0.1015,0.1016,0.1012,0.1014,0.1018,0.1019,0.1019,0.1057,0.1029,0.1028,0.1028,0.1057,0.1058,0.1059,0,0,0,0,0,0,0.1058,0.1053,0.1009,0.1028,0.1023,0.1019,0.1008,0.1008,0.1021,0.101,0.1013,0.1026,0.102,0.102,0.1041,0.1055,0.1028,0.1027,0.1055,0.1057,0.1059,0.1085,0,0,0,0,0,0,0.106,0.1053,0.1064,0.1028,0.1022,0.0997,0.1007,0.1007,0.1013,0.1017,0.1023,0.1025,0.1021,0.1042,0.104,0.1054,0.1027,0.1054,0.1056,0.1058,0.1082,0.1087,0.1091,0,0,0,0,0,0.1062,0.1063,0.1065,0.106,0.1031,0.0997,0.0994,0.0996,0.1013,0.1014,0.1035,0.1026,0.1055,0.1042,0.104,0.1054,0.1053,0.1056,0.1058,0.108,0.1086,0.1091,0,0,0,0,0,0,0.1088,0.1064,0.1066,0.1058,0.1036,0.1001,0.1007,0.1004,0.1018,0.1037,0.1033,0.1036,0.1062,0.1055,0.1041,0.1072,0.1055,0.1057,0.1072,0.1078,0.1082,0.1101,0.1026,0,0,0,0,0,0.1098,0.1106,0.1067,0.1067,0.1054,0.1035,0.1029,0.1027,0.1024,0.1032,0.1034,0.1049,0.1065,0.1071,0.1078,0.1085,0.111,0.1097,0.1101,0.1104,0.112,0.1181,0.1193,0.1068,0.1068,0.1068,0,0,0.1109,0.1099,0.1103,0.1076,0.1061,0.1046,0.1036,0.1029,0.1034,0.1031,0.1053,0.1063,0.1072,0.1091,0.1101,0.109,0.1152,0.1108,0.1111,0.1125,0.1185,0.1198,0.1208,0.107,0.107,0.1069,0,0,0.1119,0.1121,0.1123,0.1108,0.109,0.1073,0.1074,0.1047,0.1056,0.107,0.1079,0.1107,0.1113,0.1126,0.1134,0.1166,0.1176,0.1164,0.1196,0.1254,0.1265,0.1275,0.1316,0.133,0.1163,0.1163,0.1163,0,0.1135,0.1128,0.1117,0.111,0.1103,0.1087,0.1077,0.1077,0.1068,0.1077,0.109,0.1129,0.1136,0.1165,0.1186,0.1176,0.1208,0.1171,0.1261,0.1271,0.1281,0.1321,0.1336,0.1164,0.1164,0.1164,0.1164,0,0.1134,0.1138,0.1135,0.1128,0.112,0.111,0.1096,0.1098,0.1113,0.1117,0.1156,0.1176,0.1202,0.1206,0.1211,0.1272,0.1271,0.1261,0.1246,0.1295,0.1334,0.1349,0.1167,0.1166,0.1166,0.1165,0,0,0.1133,0.1135,0.1138,0.1134,0.113,0.1111,0.1126,0.1119,0.1136,0.1158,0.1204,0.1231,0.125,0.1263,0.1267,0.1319,0.1414,0.1326,0.1328,0.1366,0.1543,0.1397,0.1399,0.1424,0.1427,0.1429,0.154,0,0.1132,0.1131,0.1134,0.1132,0.1119,0.1118,0.1134,0.114,0.1157,0.1201,0.1242,0.13,0.1268,0.131,0.1348,0.1407,0.1456,0.1385,0.1492,0.1496,0.1359,0.1412,0.1438,0.1551,0.1554,0.1557,0.1559,0,0.1118,0.1124,0.1129,0.1129,0.1125,0.1137,0.1148,0.1161,0.1216,0.1247,0.1298,0.1339,0.142,0.1412,0.1511,0.1469,0.1515,0.1554,0.1559,0.1426,0.1376,0.1495,0.1585,0.1583,0.1581,0.158,0.1578,0,0.1103,0.1107,0.1117,0.1119,0.1128,0.1142,0.1156,0.1186,0.1203,0.1308,0.1361,0.1427,0.1511,0.1567,0.161,0.1592,0.1729,0.1709,0.1614,0.1604,0.1692,0.168,0.1803,0.1803,0.1803,0.1802,0.1802,0,0.1078,0.1077,0.1121,0.1123,0.1139,0.1157,0.1192,0.1206,0.1277,0.1314,0.1403,0.1455,0.1566,0.1631,0.1657,0.166,0.1758,0.1636,0.1628,0.1698,0.1686,0.1702,0.1688,0.1807,0.1806,0.1805,0.1804,0,0.1029,0.1064,0.1072,0.1114,0.1131,0.1148,0.1203,0.122,0.1305,0.137,0.1426,0.1527,0.1611,0.1666,0.1781,0.1714,0.1745,0.1725,0.1796,0.1789,0.1577,0.1564,0.1648,0.1644,0.164,0.1637,0.1635,0,0.0984,0.0997,0.1066,0.1082,0.1104,0.1149,0.1174,0.1237,0.1252,0.1378,0.1402,0.1537,0.159,0.1625,0.1692,0.1725,0.1699,0.1702,0.1637,0.1579,0.1565,0.1557,0.1549,0.1629,0.1628,0.1627,0.1627,0,0.0899,0.0957,0.0976,0.103,0.1066,0.1087,0.1129,0.1142,0.1219,0.1316,0.1356,0.141,0.1501,0.1556,0.1589,0.1603,0.169,0.1665,0.1673,0.1612,0.1557,0.1545,0.1541,0.1614,0.1616,0.1617,0.1618,0,0.0841,0.0847,0.0909,0.094,0.0987,0.0996,0.1039,0.1064,0.1097,0.1221,0.1237,0.1373,0.1484,0.1494,0.1518,0.152,0.1503,0.1448,0.1467,0.1481,0.1368,0.1271,0.1248,0,0,0,0,0,0.0765,0.0768,0.0799,0.0835,0.0889,0.092,0.0976,0.1026,0.1124,0.1111,0.116,0.123,0.1287,0.1357,0.1329,0.1447,0.1508,0.1406,0.1454,0.1547,0.1561,0.144,0,0,0,0,0,0,0.0712,0.0736,0.0762,0.0744,0.0763,0.0801,0.0847,0.0919,0.0912,0.1025,0.1068,0.1147,0.1228,0.1297,0.1307,0.1324,0.1323,0.1479,0.1475,0.1539,0.1552,0.1563,0.1443,0,0,0,0,0]},{"header":{"parameterUnit":"m.s-1","parameterCategory":2,"la1":30.2991,"la2":30.254,"lo1":-89.0895,"lo2":-89.0444,"dy":0.0017,"dx":0.0017,"nx":28,"ny":28,"refTime":"2024-05-31T21:00:00:Z","depth":"4","parameterNumber":3,"parameterNumberName":"V-component_of_CURRENTS"},"data":[0,0,0,0,0,0,0,0,0,0,0,0,0,0,0,0,0,0,0,0,0,0,0,0,0,0,0,0,0,0,0,0,0,0,0,0,0,0,0,0,0,0,0,0,0,0,0,0,0,0,0,0,0,0,0,0,0,0,0.0095,0.0095,0,0.0147,0.0147,0.0148,0.0158,0.0158,0.0157,0.0157,0.0191,0.0192,0.0193,0,0,0,0,0,0,0,0,0,0,0,0,0,0.0034,0.0035,0.0095,0.0095,0.0096,0.0146,0.0147,0.0148,0.0158,0.0158,0.0157,0.0157,0.019,0.0192,0.0193,0,0,0,0,0,0,0,0,0,0,0,0,0,0.0071,0.0036,0.0095,0.0107,0.0108,0.0146,0.0147,0.0148,0.0158,0.0158,0.0157,0.0156,0.019,0.0191,0.0193,0.022,0,0,0.02,0.02,0,0,0,0,0,0,0,0,0.0069,0.0074,0.0104,0.0106,0.0108,0.0145,0.0138,0.0171,0.0159,0.014,0.0157,0.0156,0.0173,0.0177,0.0189,0.0221,0.0223,0.02,0.0201,0.0202,0.0202,0,0,0,0,0,0,0,0.0067,0.0072,0.0116,0.0105,0.0107,0.012,0.0124,0.0145,0.016,0.0142,0.0142,0.0147,0.0174,0.0187,0.019,0.0223,0.02,0.0201,0.0203,0.0203,0.0267,0.0267,0,0,0,0,0,0,0.0058,0.0069,0.0114,0.0117,0.0085,0.0121,0.0126,0.0134,0.0161,0.0164,0.0148,0.0147,0.0184,0.0188,0.0191,0.0227,0.0202,0.0204,0.0205,0.0266,0.0267,0.0268,0,0,0,0,0,0,0.0057,0.0062,0.0112,0.0094,0.0101,0.0122,0.0132,0.0135,0.0152,0.0165,0.0168,0.016,0.0184,0.0189,0.0213,0.0228,0.0205,0.0206,0.0266,0.0267,0.0267,0.0297,0,0,0,0,0,0,0.0055,0.0061,0.0068,0.0093,0.0101,0.0138,0.0132,0.0137,0.0155,0.0156,0.0177,0.0179,0.0184,0.021,0.0215,0.0231,0.0208,0.0265,0.0266,0.0267,0.0296,0.0299,0.0302,0,0,0,0,0,0.0053,0.0062,0.0068,0.0074,0.0109,0.0139,0.0145,0.0158,0.0157,0.0169,0.0181,0.0179,0.0219,0.0212,0.0218,0.0235,0.0265,0.0266,0.0267,0.0294,0.0298,0.0301,0,0,0,0,0,0,0.0041,0.0065,0.0072,0.0089,0.0114,0.014,0.0152,0.0163,0.0184,0.0183,0.0192,0.0196,0.0221,0.0224,0.0216,0.0254,0.0239,0.0241,0.0258,0.0262,0.0265,0.025,0.021,0,0,0,0,0,0.0042,0.0054,0.0081,0.0097,0.0108,0.0132,0.0147,0.0158,0.0178,0.0187,0.0202,0.0215,0.0231,0.0242,0.0256,0.0284,0.0251,0.0295,0.0298,0.03,0.0291,0.0245,0.0242,0.0271,0.0271,0.0271,0,0,0.0044,0.0057,0.0066,0.0095,0.0114,0.014,0.014,0.0164,0.0186,0.0188,0.022,0.0228,0.024,0.0267,0.0278,0.0272,0.0278,0.0302,0.0304,0.0293,0.0246,0.0242,0.024,0.0272,0.0272,0.0272,0,0,0.0052,0.0064,0.0079,0.0101,0.0129,0.0146,0.0154,0.0186,0.0199,0.0233,0.0234,0.0248,0.0283,0.0289,0.0298,0.0325,0.0294,0.0334,0.0342,0.0298,0.0295,0.0291,0.0255,0.0248,0.0337,0.0337,0.0337,0,0.0054,0.0077,0.0089,0.0111,0.0132,0.0149,0.0177,0.0197,0.0233,0.0243,0.0244,0.0277,0.0291,0.0311,0.0323,0.0332,0.0299,0.033,0.03,0.0296,0.0292,0.0256,0.0248,0.0339,0.0339,0.0339,0.0338,0,0.0078,0.0099,0.011,0.0143,0.0166,0.0192,0.022,0.0243,0.0259,0.0272,0.0294,0.0306,0.0321,0.0333,0.0342,0.0331,0.0315,0.0307,0.0288,0.0291,0.0253,0.0244,0.0341,0.0341,0.034,0.034,0,0,0.008,0.0119,0.0124,0.0147,0.0186,0.021,0.0243,0.0276,0.0292,0.0312,0.0325,0.0352,0.0344,0.0351,0.0357,0.0327,0.0285,0.0309,0.0306,0.0268,0.0184,0.0194,0.0185,0.0265,0.0264,0.0262,0.0171,0,0.0099,0.0139,0.0157,0.0204,0.023,0.0256,0.0287,0.0315,0.033,0.0344,0.0341,0.0355,0.0355,0.0363,0.0333,0.0299,0.0261,0.031,0.0191,0.0187,0.0191,0.0174,0.0258,0.0164,0.0162,0.0161,0.016,0,0.0121,0.0145,0.0189,0.0237,0.0251,0.0282,0.0326,0.0357,0.0372,0.0381,0.0377,0.0367,0.0348,0.0339,0.0256,0.0285,0.0234,0.0197,0.0192,0.0181,0.018,0.0159,0.0143,0.0144,0.0145,0.0147,0.0148,0,0.0119,0.017,0.0204,0.0223,0.0278,0.0304,0.0336,0.0365,0.0393,0.0396,0.0403,0.0366,0.0358,0.0278,0.0219,0.0227,0.011,0.0111,0.0066,0.0066,0.0071,0.0075,0.0028,0.0028,0.0028,0.0029,0.0029,0,0.0135,0.0164,0.0206,0.0229,0.0278,0.0312,0.0361,0.0385,0.0412,0.0438,0.0418,0.0418,0.0338,0.0274,0.0203,0.011,0.0092,0.0055,0.0038,0.0089,0.0096,0.0065,0.0071,0.0025,0.0026,0.0027,0.0027,0,0.0136,0.016,0.0205,0.0259,0.028,0.0318,0.0388,0.042,0.0441,0.0471,0.0472,0.0444,0.0369,0.0281,0.0158,0.0102,0.0005,-0.0026,0.0036,0.0026,-0.0008,0.0001,-0.0094,-0.0095,-0.0095,-0.0096,-0.0096,0,0.0143,0.0165,0.0224,0.0254,0.0284,0.0343,0.0388,0.0434,0.0468,0.0489,0.05,0.0443,0.0414,0.0247,0.0152,0.0002,-0.0011,-0.0072,-0.0043,-0.0016,-0.0023,-0.0014,-0.0006,-0.0097,-0.0097,-0.0097,-0.0097,0,0.0166,0.0181,0.0217,0.0273,0.0323,0.038,0.0442,0.0467,0.0519,0.0531,0.0521,0.045,0.037,0.0253,0.014,0.0034,-0.004,-0.0077,-0.0077,-0.005,-0.002,-0.0025,-0.0016,-0.0099,-0.0098,-0.0098,-0.0098,0,0.0186,0.0206,0.0247,0.0297,0.0354,0.0403,0.0437,0.0482,0.0517,0.0541,0.0532,0.0456,0.0414,0.0269,0.0162,0.0063,0.0041,0.0001,-0.0003,-0.0003,0.0059,0.0114,0.0049,0,0,0,0,0,0.0208,0.0227,0.0271,0.0323,0.0375,0.0403,0.0471,0.0501,0.0542,0.054,0.0541,0.0471,0.0333,0.0275,0.0177,0.0146,0.0014,0.0025,-0.0036,-0.0107,-0.0106,-0.0046,0,0,0,0,0,0,0.0224,0.0262,0.027,0.0333,0.0364,0.0425,0.0463,0.049,0.0496,0.0518,0.045,0.0431,0.0299,0.0384,0.0168,0.014,0.0084,-0.0032,-0.0035,-0.0108,-0.0107,-0.0105,-0.0044,0,0,0,0,0]}]]